This demonstration page uses our WeatherBlox Daily Observations layout. Learn more.

38.88101, -77.10428

Hourly Observations for August 15, 2017

Temp ( °F °C ) Dew Point ( °F °C ) Humidity (%) Winds ( mph kmh ) Pressure ( in mb ) Visibility ( mi km ) Precip ( " mm )
12:52 am 00:52 Cloudy 76 24.4 71 21.7 85 85 Calm 29.94 1014 9 14.48406 0 0
1:52 am 01:52 Cloudy 76 24.4 71 21.7 85 85 Calm 29.93 1013 8 12.87472 0 0
2:52 am 02:52 Cloudy 76 24.4 71 21.7 85 85 Calm 29.91 1013 8 12.87472 0 0
3:52 am 03:52 Cloudy 75 23.9 71 21.7 88 88 Calm 29.9 1013 8 12.87472 0 0
4:52 am 04:52 Cloudy with Light Rain 75 23.9 72 22.2 90 90 Calm 29.9 1013 8 12.87472 0 0.0254
5:12 am 05:12 Cloudy with Light Rain 75 23.9 73 22.8 94 94 SE 3 6 29.91 1013 7 11.26538 0 0.0254
5:52 am 05:52 Cloudy 75 23.9 73 22.8 94 94 Calm 29.9 1012 7 11.26538 0 0.0254
6:13 am 06:13 Cloudy with Light Rain 75 23.9 73 22.8 94 94 E 3 6 29.91 1013 7 11.26538 0 0.0254
6:52 am 06:52 Cloudy 75 23.9 73 22.8 94 94 ESE 3 6 29.91 1013 7 11.26538 0 0.0254
7:52 am 07:52 Cloudy with Light Rain 75 23.9 74 23.3 96 96 Calm 29.92 1013 4 6.43736 0.01 0.254
8:29 am 08:29 Cloudy with Light Rain 76 24.4 74 23.3 94 94 Calm 29.94 1014 4 6.43736 0.02 0.508
8:52 am 08:52 Cloudy with Light Rain 76 24.4 74 23.3 94 94 S 5 7 29.92 1013 5 8.0467 0.03 0.762
9:27 am 09:27 Cloudy with Light Rain 76 24.4 75 23.9 97 97 S 5 7 29.91 1013 5 8.0467 0.02 0.508
9:52 am 09:52 Cloudy with Light Rain 76 24.4 75 23.9 97 97 S 3 6 29.91 1013 4 6.43736 0.04 1.016
10:02 am 10:02 Cloudy with Light Rain 76 24.4 75 23.9 97 97 S 5 7 29.91 1013 4 6.43736 0.01 0.254
10:19 am 10:19 Cloudy with Light Rain 77 25 75 23.9 94 94 S 6 9 29.91 1013 5 8.0467 0.01 0.254
10:42 am 10:42 Cloudy with Light Rain 77 25 75 23.9 94 94 S 5 7 29.91 1013 7 11.26538 0.01 0.254
10:52 am 10:52 Cloudy with Light Rain 77 25 76 24.4 96 96 S 7 11 29.91 1013 7 11.26538 0.01 0.254
11:29 am 11:29 Cloudy with Light Rain 77 25 76 24.4 96 96 SSW 5 7 29.91 1013 5 8.0467 0.01 0.254
11:52 am 11:52 Cloudy with Light Rain 77 25 76 24.4 96 96 SSW 5 7 29.9 1013 6 9.65604 0.02 0.508
12:06 pm 12:06 Cloudy with Light Rain 77 25 76 24.4 96 96 SSW 3 6 29.91 1013 5 8.0467 0.02 0.508
12:27 pm 12:27 Cloudy with Light Rain 77 25 75 23.9 94 94 W 3 6 29.91 1013 5 8.0467 0.04 1.016
12:52 pm 12:52 Cloudy with Light Rain 79 26.1 76 24.4 90 90 WNW 3 6 29.9 1013 9 14.48406 0.06 1.524
1:08 pm 13:08 Cloudy with Nearby Thunderstorms 79 26.1 76 24.4 90 90 WNW 3 6 29.91 1013 10 16.0934 0 0.0254
1:18 pm 13:18 Cloudy 79 26.1 76 24.4 90 90 WNW 6 9 29.91 1013 10 16.0934 0 0.0254
1:25 pm 13:25 Cloudy 79 26.1 76 24.4 90 90 WNW 6 9 29.91 1013 10 16.0934 0 0.0254
1:32 pm 13:32 Cloudy 79 26.1 75 23.9 88 88 W 5 7 29.91 1013 10 16.0934 0 0.0254
1:52 pm 13:52 Cloudy 80 26.7 75 23.9 85 85 VRB 3 6 29.9 1012 10 16.0934 0 0.0254
2:08 pm 14:08 Cloudy 80 26.7 75 23.9 85 85 Calm 29.91 1013 10 16.0934 0 0
2:17 pm 14:17 Cloudy 80 26.7 77 25 90 90 N 8 13 29.88 1012 10 16.0934 0 0
2:43 pm 14:43 Cloudy 80 26.7 76 24.4 87 87 N 8 13 29.88 1012 10 16.0934 0 0
2:52 pm 14:52 Cloudy 80 26.7 76 24.4 87 87 NNW 9 15 29.88 1012 10 16.0934 0 0
3:44 pm 15:44 Cloudy 79 26.1 75 23.9 88 88 NNW 10 17 29.88 1012 10 16.0934 0 0
3:52 pm 15:52 Cloudy 79 26.1 75 23.9 88 88 NNW 10 17 29.88 1012 10 16.0934 0 0
4:52 pm 16:52 Cloudy 80 26.7 74 23.3 82 82 N 8 13 29.88 1012 10 16.0934 0 0
5:08 pm 17:08 Mostly Cloudy 80 26.7 74 23.3 82 82 NNW 8 13 29.88 1012 10 16.0934 0 0
5:17 pm 17:17 Cloudy 80 26.7 74 23.3 82 82 N 6 9 29.88 1012 10 16.0934 0 0
5:52 pm 17:52 Mostly Cloudy 81 27.2 75 23.9 82 82 NNW 5 7 29.88 1012 10 16.0934 0 0
6:52 pm 18:52 Partly Cloudy 82 27.8 74 23.3 77 77 N 7 11 29.88 1012 10 16.0934 0 0
7:52 pm 19:52 Mostly Cloudy 79 26.1 75 23.9 88 88 NE 5 7 29.89 1012 10 16.0934 0 0
8:52 pm 20:52 Mostly Cloudy 79 26.1 74 23.3 85 85 NNE 3 6 29.91 1013 10 16.0934 0 0
9:15 pm 21:15 Mostly Cloudy 79 26.1 75 23.9 88 88 NE 5 7 29.91 1013 10 16.0934 0 0
9:43 pm 21:43 Mostly Cloudy 78 25.6 75 23.9 90 90 ENE 5 7 29.91 1013 10 16.0934 0 0
9:52 pm 21:52 Mostly Cloudy 78 25.6 75 23.9 90 90 ENE 5 7 29.92 1013 10 16.0934 0 0
10:52 pm 22:52 Mostly Cloudy 77 25 74 23.3 90 90 ENE 3 6 29.93 1013 10 16.0934 0 0
11:18 pm 23:18 Mostly Cloudy 77 25 75 23.9 94 94 NE 3 6 29.94 1014 8 12.87472 0 0
11:43 pm 23:43 Partly Cloudy 77 25 74 23.3 90 90 Calm 29.94 1014 10 16.0934 0 0
11:52 pm 23:52 Partly Cloudy 75 23.9 74 23.3 96 96 Calm 29.93 1014 10 16.0934 0 0

Powered by AerisWeather